Location: Napa Junction
(38.1874°N, 122.2508°W)
Time: 04:49:43
(UTC+00:00)

CENTAUR R/B - Visible Passes

Search period start: 14 December 2025 00:00
Search period end: 24 December 2025 00:00
Orbit: 633 x 1547 km, 63.4° (Epoch: 13 December)

Date Brightness Start Highest point End Pass type
(mag) Time Alt. Az. Time Alt. Az. Time Alt. Az.
14 Dec 4.9 01:36:11 10° NNW 01:37:16 10° NNW 01:38:24 10° N visible
15 Dec 5.3 04:30:18 10° N 04:30:25 10° N 04:30:25 10° N visible
16 Dec 5.0 03:41:30 10° N 03:42:41 12° N 03:42:41 12° N visible
17 Dec 5.0 02:53:20 10° N 02:54:36 10° NNE 02:54:57 10° NNE visible
17 Dec 5.3 04:41:33 10° NNW 04:42:03 12° NNW 04:42:03 12° NNW visible
18 Dec 5.0 03:52:35 10° N 03:54:22 15° N 03:54:22 15° N visible
19 Dec 4.8 03:03:45 10° N 03:06:41 14° NNE 03:06:41 14° NNE visible
19 Dec 5.2 04:52:56 10° NNW 04:53:47 13° NNW 04:53:47 13° NNW visible
20 Dec 4.9 02:15:22 10° N 02:17:06 11° NNE 02:18:53 10° NNE visible
20 Dec 4.8 04:03:50 10° NNW 04:06:09 18° N 04:06:09 18° N visible
21 Dec 4.6 03:14:51 10° NNW 03:18:34 19° NNE 03:18:34 19° NNE visible
21 Dec 5.2 05:04:26 10° NNW 05:05:41 16° NNW 05:05:41 16° NNW visible
22 Dec 4.7 02:25:59 10° N 02:30:13 15° NNE 02:31:02 15° NNE visible
22 Dec 4.7 04:15:13 10° NNW 04:18:09 23° N 04:18:09 23° N visible
23 Dec 4.8 01:37:28 10° N 01:39:36 11° NNE 01:41:48 10° NNE visible
23 Dec 4.3 03:26:07 10° NNW 03:30:41 26° NNE 03:30:41 26° NNE visible
23 Dec 5.1 05:16:08 10° NW 05:17:48 18° NW 05:17:48 18° NW visible
